Year,Month,Day,Hour,Minute,Value (Times are PST for temperature in C)
2013,04,24,00,00,6.70
2013,04,24,00,01,6.70
2013,04,24,00,02,6.70
2013,04,24,00,03,6.60
2013,04,24,00,04,6.60
2013,04,24,00,05,6.60
2013,04,24,00,06,6.50
2013,04,24,00,07,6.50
2013,04,24,00,08,6.40
2013,04,24,00,09,6.40
2013,04,24,00,10,6.30
2013,04,24,00,11,6.30
2013,04,24,00,12,6.20
2013,04,24,00,13,6.20
2013,04,24,00,14,6.10
2013,04,24,00,15,6.10
2013,04,24,00,16,6.00
2013,04,24,00,17,6.00
2013,04,24,00,18,5.90
2013,04,24,00,19,5.90
2013,04,24,00,20,5.80
2013,04,24,00,21,5.80
2013,04,24,00,22,5.80
2013,04,24,00,23,5.70
2013,04,24,00,24,5.70
2013,04,24,00,25,5.70
2013,04,24,00,26,5.70
2013,04,24,00,27,5.60
2013,04,24,00,28,5.60
2013,04,24,00,29,5.60
2013,04,24,00,30,5.60
2013,04,24,00,31,5.60
2013,04,24,00,32,5.50
2013,04,24,00,33,5.50
2013,04,24,00,34,5.50
2013,04,24,00,35,5.40
2013,04,24,00,36,5.40
2013,04,24,00,37,5.40
2013,04,24,00,38,5.30
2013,04,24,00,39,5.30
2013,04,24,00,40,5.20
2013,04,24,00,41,5.20
2013,04,24,00,42,5.20
2013,04,24,00,43,5.20
2013,04,24,00,44,5.20
2013,04,24,00,45,5.20
2013,04,24,00,46,5.10
2013,04,24,00,47,5.10
2013,04,24,00,48,5.10
2013,04,24,00,49,5.10
2013,04,24,00,50,5.10
2013,04,24,00,51,5.00
2013,04,24,00,52,5.10
2013,04,24,00,53,5.00
2013,04,24,00,54,5.00
2013,04,24,00,55,5.00
2013,04,24,00,56,5.00
2013,04,24,00,57,5.00
2013,04,24,00,58,4.90
2013,04,24,00,59,4.90
2013,04,24,01,00,4.90
2013,04,24,01,01,4.80
2013,04,24,01,02,4.80
2013,04,24,01,03,4.80
2013,04,24,01,04,4.80
2013,04,24,01,05,4.80
2013,04,24,01,06,4.80
2013,04,24,01,07,4.70
2013,04,24,01,08,4.70
2013,04,24,01,09,4.70
2013,04,24,01,10,4.70
2013,04,24,01,11,4.70
2013,04,24,01,12,4.70
2013,04,24,01,13,4.70
2013,04,24,01,14,4.70
2013,04,24,01,15,4.60
2013,04,24,01,16,4.60
2013,04,24,01,17,4.60
2013,04,24,01,18,4.60
2013,04,24,01,19,4.60
2013,04,24,01,20,4.60
2013,04,24,01,21,4.60
2013,04,24,01,22,4.50
2013,04,24,01,23,4.50
2013,04,24,01,24,4.50
2013,04,24,01,25,4.50
2013,04,24,01,26,4.50
2013,04,24,01,27,4.50
2013,04,24,01,28,4.50
2013,04,24,01,29,4.50
2013,04,24,01,30,4.50
2013,04,24,01,31,4.50
2013,04,24,01,32,4.40
2013,04,24,01,33,4.40
2013,04,24,01,34,4.40
2013,04,24,01,35,4.40
2013,04,24,01,36,4.40
2013,04,24,01,37,4.30
2013,04,24,01,38,4.30
2013,04,24,01,39,4.30
2013,04,24,01,40,4.30
2013,04,24,01,41,4.30
2013,04,24,01,42,4.30
2013,04,24,01,43,4.30
2013,04,24,01,44,4.30
2013,04,24,01,45,4.30
2013,04,24,01,46,4.20
2013,04,24,01,47,4.20
2013,04,24,01,48,4.20
2013,04,24,01,49,4.20
2013,04,24,01,50,4.20
2013,04,24,01,51,4.20
2013,04,24,01,52,4.20
2013,04,24,01,53,4.10
2013,04,24,01,54,4.10
2013,04,24,01,55,4.10
2013,04,24,01,56,4.10
2013,04,24,01,57,4.10
2013,04,24,01,58,4.10
2013,04,24,01,59,4.10
2013,04,24,02,00,4.10
2013,04,24,02,01,4.10
2013,04,24,02,02,4.10
2013,04,24,02,03,4.00
2013,04,24,02,04,4.00
2013,04,24,02,05,4.00
2013,04,24,02,06,4.00
2013,04,24,02,07,3.90
2013,04,24,02,08,3.90
2013,04,24,02,09,3.90
2013,04,24,02,10,3.90
2013,04,24,02,11,3.90
2013,04,24,02,12,3.90
2013,04,24,02,13,3.80
2013,04,24,02,14,3.80
2013,04,24,02,15,3.80
2013,04,24,02,16,3.80
2013,04,24,02,17,3.80
2013,04,24,02,18,3.80
2013,04,24,02,19,3.80
2013,04,24,02,20,3.80
2013,04,24,02,21,3.70
2013,04,24,02,22,3.70
2013,04,24,02,23,3.70
2013,04,24,02,24,3.70
2013,04,24,02,25,3.70
2013,04,24,02,26,3.70
2013,04,24,02,27,3.70
2013,04,24,02,28,3.60
2013,04,24,02,29,3.60
2013,04,24,02,30,3.60
2013,04,24,02,31,3.60
2013,04,24,02,32,3.50
2013,04,24,02,33,3.50
2013,04,24,02,34,3.50
2013,04,24,02,35,3.50
2013,04,24,02,36,3.50
2013,04,24,02,37,3.40
2013,04,24,02,38,3.40
2013,04,24,02,39,3.40
2013,04,24,02,40,3.40
2013,04,24,02,41,3.30
2013,04,24,02,42,3.30
2013,04,24,02,43,3.30
2013,04,24,02,44,3.30
2013,04,24,02,45,3.30
2013,04,24,02,46,3.30
2013,04,24,02,47,3.30
2013,04,24,02,48,3.30
2013,04,24,02,49,3.30
2013,04,24,02,50,3.30
2013,04,24,02,51,3.30
2013,04,24,02,52,3.20
2013,04,24,02,53,3.20
2013,04,24,02,54,3.20
2013,04,24,02,55,3.20
2013,04,24,02,56,3.20
2013,04,24,02,57,3.20
2013,04,24,02,58,3.20
2013,04,24,02,59,3.20
2013,04,24,03,00,3.10
2013,04,24,03,01,3.10
2013,04,24,03,02,3.10
2013,04,24,03,03,3.10
2013,04,24,03,04,3.00
2013,04,24,03,05,3.00
2013,04,24,03,06,3.00
2013,04,24,03,07,2.90
2013,04,24,03,08,2.90
2013,04,24,03,09,2.90
2013,04,24,03,10,2.90
2013,04,24,03,11,2.90
2013,04,24,03,12,2.90
2013,04,24,03,13,2.80
2013,04,24,03,14,2.80
2013,04,24,03,15,2.80
2013,04,24,03,16,2.80
2013,04,24,03,17,2.80
2013,04,24,03,18,2.80
2013,04,24,03,19,2.80
2013,04,24,03,20,2.80
2013,04,24,03,21,2.70
2013,04,24,03,22,2.70
2013,04,24,03,23,2.70
2013,04,24,03,24,2.70
2013,04,24,03,25,2.70
2013,04,24,03,26,2.70
2013,04,24,03,27,2.70
2013,04,24,03,28,2.70
2013,04,24,03,29,2.70
2013,04,24,03,30,2.60
2013,04,24,03,31,2.60
2013,04,24,03,32,2.60
2013,04,24,03,33,2.60
2013,04,24,03,34,2.60
2013,04,24,03,35,2.60
2013,04,24,03,36,2.50
2013,04,24,03,37,2.50
2013,04,24,03,38,2.50
2013,04,24,03,39,2.40
2013,04,24,03,40,2.40
2013,04,24,03,41,2.40
2013,04,24,03,42,2.40
2013,04,24,03,43,2.40
2013,04,24,03,44,2.40
2013,04,24,03,45,2.40
2013,04,24,03,46,2.40
2013,04,24,03,47,2.40
2013,04,24,03,48,2.30
2013,04,24,03,49,2.30
2013,04,24,03,50,2.30
2013,04,24,03,51,2.30
2013,04,24,03,52,2.30
2013,04,24,03,53,2.30
2013,04,24,03,54,2.30
2013,04,24,03,55,2.30
2013,04,24,03,56,2.30
2013,04,24,03,57,2.30
2013,04,24,03,58,2.30
2013,04,24,03,59,2.30
2013,04,24,04,00,2.30
2013,04,24,04,01,2.20
2013,04,24,04,02,2.20
2013,04,24,04,03,2.20
2013,04,24,04,04,2.20
2013,04,24,04,05,2.20
2013,04,24,04,06,2.20
2013,04,24,04,07,2.20
2013,04,24,04,08,2.20
2013,04,24,04,09,2.20
2013,04,24,04,10,2.10
2013,04,24,04,11,2.10
2013,04,24,04,12,2.10
2013,04,24,04,13,2.10
2013,04,24,04,14,2.10
2013,04,24,04,15,2.10
2013,04,24,04,16,2.10
2013,04,24,04,17,2.10
2013,04,24,04,18,2.00
2013,04,24,04,19,2.10
2013,04,24,04,20,2.00
2013,04,24,04,21,2.00
2013,04,24,04,22,2.00
2013,04,24,04,23,2.00
2013,04,24,04,24,2.00
2013,04,24,04,25,2.00
2013,04,24,04,26,1.90
2013,04,24,04,27,1.90
2013,04,24,04,28,1.90
2013,04,24,04,29,1.80
2013,04,24,04,30,1.80
2013,04,24,04,31,1.80
2013,04,24,04,32,1.80
2013,04,24,04,33,1.80
2013,04,24,04,34,1.80
2013,04,24,04,35,1.80
2013,04,24,04,36,1.80
2013,04,24,04,37,1.80
2013,04,24,04,38,1.70
2013,04,24,04,39,1.70
2013,04,24,04,40,1.70
2013,04,24,04,41,1.70
2013,04,24,04,42,1.70
2013,04,24,04,43,1.70
2013,04,24,04,44,1.70
2013,04,24,04,45,1.70
2013,04,24,04,46,1.70
2013,04,24,04,47,1.70
2013,04,24,04,48,1.70
2013,04,24,04,49,1.60
2013,04,24,04,50,1.60
2013,04,24,04,51,1.60
2013,04,24,04,52,1.60
2013,04,24,04,53,1.60
2013,04,24,04,54,1.60
2013,04,24,04,55,1.60
2013,04,24,04,56,1.60
2013,04,24,04,57,1.60
2013,04,24,04,58,1.60
2013,04,24,04,59,1.60
2013,04,24,05,00,1.60
2013,04,24,05,01,1.50
2013,04,24,05,02,1.50
2013,04,24,05,03,1.50
2013,04,24,05,04,1.50
2013,04,24,05,05,1.50
2013,04,24,05,06,1.50
2013,04,24,05,07,1.40
2013,04,24,05,08,1.40
2013,04,24,05,09,1.40
2013,04,24,05,10,1.40
2013,04,24,05,11,1.40
2013,04,24,05,12,1.40
2013,04,24,05,13,1.40
2013,04,24,05,14,1.40
2013,04,24,05,15,1.40
2013,04,24,05,16,1.40
2013,04,24,05,17,1.40
2013,04,24,05,18,1.40
2013,04,24,05,19,1.40
2013,04,24,05,20,1.30
2013,04,24,05,21,1.30
2013,04,24,05,22,1.30
2013,04,24,05,23,1.30
2013,04,24,05,24,1.30
2013,04,24,05,25,1.30
2013,04,24,05,26,1.30
2013,04,24,05,27,1.30
2013,04,24,05,28,1.20
2013,04,24,05,29,1.20
2013,04,24,05,30,1.20
2013,04,24,05,31,1.20
2013,04,24,05,32,1.20
2013,04,24,05,33,1.20
2013,04,24,05,34,1.20
2013,04,24,05,35,1.20
2013,04,24,05,36,1.20
2013,04,24,05,37,1.20
2013,04,24,05,38,1.20
2013,04,24,05,39,1.20
2013,04,24,05,40,1.20
2013,04,24,05,41,1.10
2013,04,24,05,42,1.10
2013,04,24,05,43,1.10
2013,04,24,05,44,1.10
2013,04,24,05,45,1.10
2013,04,24,05,46,1.10
2013,04,24,05,47,1.10
2013,04,24,05,48,1.10
2013,04,24,05,49,1.10
2013,04,24,05,50,1.10
2013,04,24,05,51,1.00
2013,04,24,05,52,1.00
2013,04,24,05,53,1.00
2013,04,24,05,54,1.00
2013,04,24,05,55,1.00
2013,04,24,05,56,1.00
2013,04,24,05,57,1.00
2013,04,24,05,58,1.00
2013,04,24,05,59,1.00
2013,04,24,06,00,1.00
2013,04,24,06,01,1.00
2013,04,24,06,02,1.00
2013,04,24,06,03,0.90
2013,04,24,06,04,0.90
2013,04,24,06,05,0.90
2013,04,24,06,06,0.90
2013,04,24,06,07,0.90
2013,04,24,06,08,0.90
2013,04,24,06,09,0.90
2013,04,24,06,10,0.90
2013,04,24,06,11,0.90
2013,04,24,06,12,0.90
2013,04,24,06,13,0.90
2013,04,24,06,14,0.90
2013,04,24,06,15,0.90
2013,04,24,06,16,0.90
2013,04,24,06,17,0.90
2013,04,24,06,18,0.90
2013,04,24,06,19,0.90
2013,04,24,06,20,0.90
2013,04,24,06,21,0.90
2013,04,24,06,22,0.90
2013,04,24,06,23,0.90
2013,04,24,06,24,0.90
2013,04,24,06,25,0.90
2013,04,24,06,26,0.90
2013,04,24,06,27,0.80
2013,04,24,06,28,0.80
2013,04,24,06,29,0.80
2013,04,24,06,30,0.80
2013,04,24,06,31,0.80
2013,04,24,06,32,0.80
2013,04,24,06,33,0.80
2013,04,24,06,34,0.80
2013,04,24,06,35,0.80
2013,04,24,06,36,0.80
2013,04,24,06,37,0.80
2013,04,24,06,38,0.80
2013,04,24,06,39,0.80
2013,04,24,06,40,0.80
2013,04,24,06,41,0.80
2013,04,24,06,42,0.80
2013,04,24,06,43,0.70
2013,04,24,06,44,0.70
2013,04,24,06,45,0.70
2013,04,24,06,46,0.70
2013,04,24,06,47,0.70
2013,04,24,06,48,0.70
2013,04,24,06,49,0.70
2013,04,24,06,50,0.70
2013,04,24,06,51,0.80
2013,04,24,06,52,0.80
2013,04,24,06,53,0.80
2013,04,24,06,54,0.80
2013,04,24,06,55,0.80
2013,04,24,06,56,0.80
2013,04,24,06,57,0.80
2013,04,24,06,58,0.80
2013,04,24,06,59,0.80
2013,04,24,07,00,0.80
2013,04,24,07,01,0.80
2013,04,24,07,02,0.80
2013,04,24,07,03,0.80
2013,04,24,07,04,0.80
2013,04,24,07,05,0.80
2013,04,24,07,06,0.80
2013,04,24,07,07,0.80
2013,04,24,07,08,0.80
2013,04,24,07,09,0.80
2013,04,24,07,10,0.80
2013,04,24,07,11,0.90
2013,04,24,07,12,0.90
2013,04,24,07,13,0.90
2013,04,24,07,14,0.90
2013,04,24,07,15,0.90
2013,04,24,07,16,0.90
2013,04,24,07,17,0.90
2013,04,24,07,18,0.90
2013,04,24,07,19,0.90
2013,04,24,07,20,0.90
2013,04,24,07,21,0.90
2013,04,24,07,22,1.00
2013,04,24,07,23,1.00
2013,04,24,07,24,1.00
2013,04,24,07,25,1.00
2013,04,24,07,26,1.00
2013,04,24,07,27,1.00
2013,04,24,07,28,1.10
2013,04,24,07,29,1.10
2013,04,24,07,30,1.10
2013,04,24,07,31,1.10
2013,04,24,07,32,1.10
2013,04,24,07,33,1.10
2013,04,24,07,34,1.10
2013,04,24,07,35,1.10
2013,04,24,07,36,1.20
2013,04,24,07,37,1.20
2013,04,24,07,38,1.20
2013,04,24,07,39,1.30
2013,04,24,07,40,1.30
2013,04,24,07,41,1.30
2013,04,24,07,42,1.40
2013,04,24,07,43,1.40
2013,04,24,07,44,1.50
2013,04,24,07,45,1.50
2013,04,24,07,46,1.60
2013,04,24,07,47,1.60
2013,04,24,07,48,1.70
2013,04,24,07,49,1.80
2013,04,24,07,50,1.80
2013,04,24,07,51,1.90
2013,04,24,07,52,2.00
2013,04,24,07,53,2.00
2013,04,24,07,54,2.10
2013,04,24,07,55,2.10
2013,04,24,07,56,2.10
2013,04,24,07,57,2.20
2013,04,24,07,58,2.20
2013,04,24,07,59,2.30
2013,04,24,08,00,2.30
2013,04,24,08,01,2.40
2013,04,24,08,02,2.40
2013,04,24,08,03,2.50
2013,04,24,08,04,2.60
2013,04,24,08,05,2.60
2013,04,24,08,06,2.70
2013,04,24,08,07,2.70
2013,04,24,08,08,2.80
2013,04,24,08,09,2.90
2013,04,24,08,10,3.00
2013,04,24,08,11,3.10
2013,04,24,08,12,3.20
2013,04,24,08,13,3.30
2013,04,24,08,14,3.30
2013,04,24,08,15,3.40
2013,04,24,08,16,3.50
2013,04,24,08,17,3.60
2013,04,24,08,18,3.70
2013,04,24,08,19,3.70
2013,04,24,08,20,3.70
2013,04,24,08,21,3.80
2013,04,24,08,22,3.80
2013,04,24,08,23,3.80
2013,04,24,08,24,3.80
2013,04,24,08,25,3.90
2013,04,24,08,26,3.90
2013,04,24,08,27,3.90
2013,04,24,08,28,4.00
2013,04,24,08,29,4.00
2013,04,24,08,30,4.10
2013,04,24,08,31,4.20
2013,04,24,08,32,4.30
2013,04,24,08,33,4.40
2013,04,24,08,34,4.40
2013,04,24,08,35,4.40
2013,04,24,08,36,4.50
2013,04,24,08,37,4.50
2013,04,24,08,38,4.50
2013,04,24,08,39,4.60
2013,04,24,08,40,4.60
2013,04,24,08,41,4.70
2013,04,24,08,42,4.80
2013,04,24,08,43,4.90
2013,04,24,08,44,5.00
2013,04,24,08,45,5.00
2013,04,24,08,46,5.10
2013,04,24,08,47,5.20
2013,04,24,08,48,5.30
2013,04,24,08,49,5.40
2013,04,24,08,50,5.50
2013,04,24,08,51,5.60
2013,04,24,08,52,5.70
2013,04,24,08,53,5.80
2013,04,24,08,54,5.90
2013,04,24,08,55,6.00
2013,04,24,08,56,6.10
2013,04,24,08,57,6.20
2013,04,24,08,58,6.30
2013,04,24,08,59,6.30
2013,04,24,09,00,6.40
2013,04,24,09,01,6.40
2013,04,24,09,02,6.50
2013,04,24,09,03,6.50
2013,04,24,09,04,6.60
2013,04,24,09,05,6.60
2013,04,24,09,06,6.60
2013,04,24,09,07,6.70
2013,04,24,09,08,6.60
2013,04,24,09,09,6.70
2013,04,24,09,10,6.70
2013,04,24,09,11,6.70
2013,04,24,09,12,6.70
2013,04,24,09,13,6.80
2013,04,24,09,14,6.80
2013,04,24,09,15,6.90
2013,04,24,09,16,7.00
2013,04,24,09,17,7.10
2013,04,24,09,18,7.10
2013,04,24,09,19,7.20
2013,04,24,09,20,7.30
2013,04,24,09,21,7.40
2013,04,24,09,22,7.50
2013,04,24,09,23,7.60
2013,04,24,09,24,7.70
2013,04,24,09,25,7.70
2013,04,24,09,26,7.80
2013,04,24,09,27,7.80
2013,04,24,09,28,7.80
2013,04,24,09,29,7.80
2013,04,24,09,30,7.80
2013,04,24,09,31,7.90
2013,04,24,09,32,7.90
2013,04,24,09,33,7.90
2013,04,24,09,34,8.00
2013,04,24,09,35,8.00
2013,04,24,09,36,8.10
2013,04,24,09,37,8.10
2013,04,24,09,38,8.20
2013,04,24,09,39,8.20
2013,04,24,09,40,8.20
2013,04,24,09,41,8.20
2013,04,24,09,42,8.20
2013,04,24,09,43,8.20
2013,04,24,09,44,8.20
2013,04,24,09,45,8.30
2013,04,24,09,46,8.30
2013,04,24,09,47,8.40
2013,04,24,09,48,8.40
2013,04,24,09,49,8.50
2013,04,24,09,50,8.50
2013,04,24,09,51,8.60
2013,04,24,09,52,8.60
2013,04,24,09,53,8.70
2013,04,24,09,54,8.70
2013,04,24,09,55,8.80
2013,04,24,09,56,8.80
2013,04,24,09,57,8.80
2013,04,24,09,58,8.90
2013,04,24,09,59,8.90
2013,04,24,10,00,9.00
2013,04,24,10,01,9.10
2013,04,24,10,02,9.20
2013,04,24,10,03,9.30
2013,04,24,10,04,9.30
2013,04,24,10,05,9.40
2013,04,24,10,06,9.50
2013,04,24,10,07,9.50
2013,04,24,10,08,9.60
2013,04,24,10,09,9.70
2013,04,24,10,10,9.70
2013,04,24,10,11,9.70
2013,04,24,10,12,9.70
2013,04,24,10,13,9.80
2013,04,24,10,14,9.80
2013,04,24,10,15,9.90
2013,04,24,10,16,10.00
2013,04,24,10,17,10.10
2013,04,24,10,18,10.10
2013,04,24,10,19,10.20
2013,04,24,10,20,10.20
2013,04,24,10,21,10.30
2013,04,24,10,22,10.40
2013,04,24,10,23,10.50
2013,04,24,10,24,10.50
2013,04,24,10,25,10.60
2013,04,24,10,26,10.60
2013,04,24,10,27,10.70
2013,04,24,10,28,10.70
2013,04,24,10,29,10.80
2013,04,24,10,30,10.90
2013,04,24,10,31,11.00
2013,04,24,10,32,11.10
2013,04,24,10,33,11.20
2013,04,24,10,34,11.20
2013,04,24,10,35,11.30
2013,04,24,10,36,11.40
2013,04,24,10,37,11.40
2013,04,24,10,38,11.50
2013,04,24,10,39,11.50
2013,04,24,10,40,11.60
2013,04,24,10,41,11.60
2013,04,24,10,42,11.70
2013,04,24,10,43,11.80
2013,04,24,10,44,11.80
2013,04,24,10,45,11.90
2013,04,24,10,46,11.90
2013,04,24,10,47,11.90
2013,04,24,10,48,12.00
2013,04,24,10,49,12.00
2013,04,24,10,50,12.00
2013,04,24,10,51,12.10
2013,04,24,10,52,12.10
2013,04,24,10,53,12.20
2013,04,24,10,54,12.20
2013,04,24,10,55,12.30
2013,04,24,10,56,12.40
2013,04,24,10,57,12.50
2013,04,24,10,58,12.60
2013,04,24,10,59,12.60
2013,04,24,11,00,12.70
2013,04,24,11,01,12.80
2013,04,24,11,02,12.80
2013,04,24,11,03,12.90
2013,04,24,11,04,12.90
2013,04,24,11,05,12.90
2013,04,24,11,06,13.00
2013,04,24,11,07,13.00
2013,04,24,11,08,13.00
2013,04,24,11,09,13.10
2013,04,24,11,10,13.10
2013,04,24,11,11,13.10
2013,04,24,11,12,13.10
2013,04,24,11,13,13.10
2013,04,24,11,14,13.20
2013,04,24,11,15,13.20
2013,04,24,11,16,13.30
2013,04,24,11,17,13.30
2013,04,24,11,18,13.40
2013,04,24,11,19,13.40
2013,04,24,11,20,13.50
2013,04,24,11,21,13.50
2013,04,24,11,22,13.60
2013,04,24,11,23,13.70
2013,04,24,11,24,13.80
2013,04,24,11,25,13.90
2013,04,24,11,26,13.90
2013,04,24,11,27,14.00
2013,04,24,11,28,14.00
2013,04,24,11,29,14.00
2013,04,24,11,30,14.00
2013,04,24,11,31,14.10
2013,04,24,11,32,14.10
2013,04,24,11,33,14.10
2013,04,24,11,34,14.10
2013,04,24,11,35,14.10
2013,04,24,11,36,14.10
2013,04,24,11,37,14.20
2013,04,24,11,38,14.30
2013,04,24,11,39,14.40
2013,04,24,11,40,14.50
2013,04,24,11,41,14.50
2013,04,24,11,42,14.60
2013,04,24,11,43,14.60
2013,04,24,11,44,14.70
2013,04,24,11,45,14.70
2013,04,24,11,46,14.80
2013,04,24,11,47,14.90
2013,04,24,11,48,14.90
2013,04,24,11,49,15.00
2013,04,24,11,50,15.10
2013,04,24,11,51,15.10
2013,04,24,11,52,15.20
2013,04,24,11,53,15.30
2013,04,24,11,54,15.40
2013,04,24,11,55,15.40
2013,04,24,11,56,15.50
2013,04,24,11,57,15.60
2013,04,24,11,58,15.60
2013,04,24,11,59,15.70
2013,04,24,12,00,15.70
2013,04,24,12,01,15.70
2013,04,24,12,02,15.70
2013,04,24,12,03,15.70
2013,04,24,12,04,15.80
2013,04,24,12,05,15.80
2013,04,24,12,06,15.80
2013,04,24,12,07,15.80
2013,04,24,12,08,15.90
2013,04,24,12,09,15.90
2013,04,24,12,10,16.00
2013,04,24,12,11,16.10
2013,04,24,12,12,16.20
2013,04,24,12,13,16.30
2013,04,24,12,14,16.40
2013,04,24,12,15,16.50
2013,04,24,12,16,16.60
2013,04,24,12,17,16.70
2013,04,24,12,18,16.70
2013,04,24,12,19,16.80
2013,04,24,12,20,16.80
2013,04,24,12,21,16.90
2013,04,24,12,22,17.00
2013,04,24,12,23,17.00
2013,04,24,12,24,17.10
2013,04,24,12,25,17.20
2013,04,24,12,26,17.20
2013,04,24,12,27,17.30
2013,04,24,12,28,17.30
2013,04,24,12,29,17.30
2013,04,24,12,30,17.40
2013,04,24,12,31,17.40
2013,04,24,12,32,17.50
2013,04,24,12,33,17.60
2013,04,24,12,34,17.80
2013,04,24,12,35,17.90
2013,04,24,12,36,18.00
2013,04,24,12,37,18.10
2013,04,24,12,38,18.20
2013,04,24,12,39,18.30
2013,04,24,12,40,18.40
2013,04,24,12,41,18.50
2013,04,24,12,42,18.60
2013,04,24,12,43,18.70
2013,04,24,12,44,18.70
2013,04,24,12,45,18.60
2013,04,24,12,46,18.50
2013,04,24,12,47,18.50
2013,04,24,12,48,18.40
2013,04,24,12,49,18.40
2013,04,24,12,50,18.40
2013,04,24,12,51,18.40
2013,04,24,12,52,18.40
2013,04,24,12,53,18.40
2013,04,24,12,54,18.40
2013,04,24,12,55,18.40
2013,04,24,12,56,18.40
2013,04,24,12,57,18.50
2013,04,24,12,58,18.60
2013,04,24,12,59,18.70
2013,04,24,13,00,18.70
2013,04,24,13,01,18.70
2013,04,24,13,02,18.70
2013,04,24,13,03,18.70
2013,04,24,13,04,18.70
2013,04,24,13,05,18.70
2013,04,24,13,06,18.70
2013,04,24,13,07,18.70
2013,04,24,13,08,18.70
2013,04,24,13,09,18.70
2013,04,24,13,10,18.80
2013,04,24,13,11,18.80
2013,04,24,13,12,18.70
2013,04,24,13,13,18.80
2013,04,24,13,14,18.80
2013,04,24,13,15,18.90
2013,04,24,13,16,19.00
2013,04,24,13,17,19.10
2013,04,24,13,18,19.20
2013,04,24,13,19,19.20
2013,04,24,13,20,19.20
2013,04,24,13,21,19.20
2013,04,24,13,22,19.20
2013,04,24,13,23,19.30
2013,04,24,13,24,19.30
2013,04,24,13,25,19.30
2013,04,24,13,26,19.30
2013,04,24,13,27,19.40
2013,04,24,13,28,19.40
2013,04,24,13,29,19.50
2013,04,24,13,30,19.70
2013,04,24,13,31,19.90
2013,04,24,13,32,20.00
2013,04,24,13,33,20.10
2013,04,24,13,34,20.20
2013,04,24,13,35,20.30
2013,04,24,13,36,20.30
2013,04,24,13,37,20.40
2013,04,24,13,38,20.50
2013,04,24,13,39,20.50
2013,04,24,13,40,20.60
2013,04,24,13,41,20.70
2013,04,24,13,42,20.70
2013,04,24,13,43,20.80
2013,04,24,13,44,20.80
2013,04,24,13,45,20.80
2013,04,24,13,46,20.70
2013,04,24,13,47,20.60
2013,04,24,13,48,20.50
2013,04,24,13,49,20.40
2013,04,24,13,50,20.40
2013,04,24,13,51,20.40
2013,04,24,13,52,20.50
2013,04,24,13,53,20.50
2013,04,24,13,54,20.40
2013,04,24,13,55,20.20
2013,04,24,13,56,20.10
2013,04,24,13,57,20.10
2013,04,24,13,58,20.00
2013,04,24,13,59,20.00
2013,04,24,14,00,20.10
2013,04,24,14,01,20.20
2013,04,24,14,02,20.30
2013,04,24,14,03,20.30
2013,04,24,14,04,20.40
2013,04,24,14,05,20.40
2013,04,24,14,06,20.40
2013,04,24,14,07,20.40
2013,04,24,14,08,20.50
2013,04,24,14,09,20.50
2013,04,24,14,10,20.60
2013,04,24,14,11,20.60
2013,04,24,14,12,20.60
2013,04,24,14,13,20.50
2013,04,24,14,14,20.50
2013,04,24,14,15,20.40
2013,04,24,14,16,20.30
2013,04,24,14,17,20.30
2013,04,24,14,18,20.30
2013,04,24,14,19,20.30
2013,04,24,14,20,20.30
2013,04,24,14,21,20.40
2013,04,24,14,22,20.40
2013,04,24,14,23,20.40
2013,04,24,14,24,20.30
2013,04,24,14,25,20.30
2013,04,24,14,26,20.30
2013,04,24,14,27,20.40
2013,04,24,14,28,20.50
2013,04,24,14,29,20.50
2013,04,24,14,30,20.60
2013,04,24,14,31,20.60
2013,04,24,14,32,20.50
2013,04,24,14,33,20.50
2013,04,24,14,34,20.50
2013,04,24,14,35,20.50
2013,04,24,14,36,20.60
2013,04,24,14,37,20.60
2013,04,24,14,38,20.60
2013,04,24,14,39,20.70
2013,04,24,14,40,20.80
2013,04,24,14,41,20.80
2013,04,24,14,42,20.90
2013,04,24,14,43,21.00
2013,04,24,14,44,21.00
2013,04,24,14,45,21.00
2013,04,24,14,46,21.00
2013,04,24,14,47,21.10
2013,04,24,14,48,21.20
2013,04,24,14,49,21.20
2013,04,24,14,50,21.40
2013,04,24,14,51,21.50
2013,04,24,14,52,21.50
2013,04,24,14,53,21.60
2013,04,24,14,54,21.70
2013,04,24,14,55,21.70
2013,04,24,14,56,21.60
2013,04,24,14,57,21.50
2013,04,24,14,58,21.40
2013,04,24,14,59,21.30
2013,04,24,15,00,21.30
2013,04,24,15,01,21.30
2013,04,24,15,02,21.30
2013,04,24,15,03,21.40
2013,04,24,15,04,21.40
2013,04,24,15,05,21.50
2013,04,24,15,06,21.60
2013,04,24,15,07,21.60
2013,04,24,15,08,21.50
2013,04,24,15,09,21.40
2013,04,24,15,10,21.40
2013,04,24,15,11,21.30
2013,04,24,15,12,21.30
2013,04,24,15,13,21.40
2013,04,24,15,14,21.50
2013,04,24,15,15,21.60
2013,04,24,15,16,21.60
2013,04,24,15,17,21.70
2013,04,24,15,18,21.70
2013,04,24,15,19,21.80
2013,04,24,15,20,21.90
2013,04,24,15,21,21.90
2013,04,24,15,22,21.90
2013,04,24,15,23,21.90
2013,04,24,15,24,21.90
2013,04,24,15,25,21.90
2013,04,24,15,26,22.00
2013,04,24,15,27,22.00
2013,04,24,15,28,22.00
2013,04,24,15,29,22.00
2013,04,24,15,30,21.90
2013,04,24,15,31,21.80
2013,04,24,15,32,21.80
2013,04,24,15,33,21.80
2013,04,24,15,34,21.80
2013,04,24,15,35,21.80
2013,04,24,15,36,21.90
2013,04,24,15,37,22.00
2013,04,24,15,38,22.00
2013,04,24,15,39,22.00
2013,04,24,15,40,22.00
2013,04,24,15,41,22.10
2013,04,24,15,42,22.10
2013,04,24,15,43,22.20
2013,04,24,15,44,22.20
2013,04,24,15,45,22.10
2013,04,24,15,46,22.10
2013,04,24,15,47,22.00
2013,04,24,15,48,21.90
2013,04,24,15,49,21.80
2013,04,24,15,50,21.80
2013,04,24,15,51,21.80
2013,04,24,15,52,21.90
2013,04,24,15,53,21.90
2013,04,24,15,54,21.90
2013,04,24,15,55,22.00
2013,04,24,15,56,22.00
2013,04,24,15,57,22.10
2013,04,24,15,58,22.00
2013,04,24,15,59,22.00
2013,04,24,16,00,22.00
2013,04,24,16,01,22.00
2013,04,24,16,02,22.10
2013,04,24,16,03,22.20
2013,04,24,16,04,22.30
2013,04,24,16,05,22.40
2013,04,24,16,06,22.40
2013,04,24,16,07,22.40
2013,04,24,16,08,22.40
2013,04,24,16,09,22.40
2013,04,24,16,10,22.50
2013,04,24,16,11,22.50
2013,04,24,16,12,22.50
2013,04,24,16,13,22.50
2013,04,24,16,14,22.50
2013,04,24,16,15,22.40
2013,04,24,16,16,22.40
2013,04,24,16,17,22.40
2013,04,24,16,18,22.50
2013,04,24,16,19,22.60
2013,04,24,16,20,22.60
2013,04,24,16,21,22.70
2013,04,24,16,22,22.80
2013,04,24,16,23,22.80
2013,04,24,16,24,22.80
2013,04,24,16,25,22.80
2013,04,24,16,26,22.80
2013,04,24,16,27,22.80
2013,04,24,16,28,22.80
2013,04,24,16,29,22.90
2013,04,24,16,30,22.90
2013,04,24,16,31,22.90
2013,04,24,16,32,22.90
2013,04,24,16,33,22.80
2013,04,24,16,34,22.70
2013,04,24,16,35,22.60
2013,04,24,16,36,22.50
2013,04,24,16,37,22.40
2013,04,24,16,38,22.40
2013,04,24,16,39,22.30
2013,04,24,16,40,22.30
2013,04,24,16,41,22.20
2013,04,24,16,42,22.20
2013,04,24,16,43,22.30
2013,04,24,16,44,22.30
2013,04,24,16,45,22.30
2013,04,24,16,46,22.30
2013,04,24,16,47,22.30
2013,04,24,16,48,22.30
2013,04,24,16,49,22.30
2013,04,24,16,50,22.40
2013,04,24,16,51,22.40
2013,04,24,16,52,22.50
2013,04,24,16,53,22.60
2013,04,24,16,54,22.70
2013,04,24,16,55,22.80
2013,04,24,16,56,22.80
2013,04,24,16,57,22.80
2013,04,24,16,58,22.90
2013,04,24,16,59,22.90
2013,04,24,17,00,22.90
2013,04,24,17,01,22.80
2013,04,24,17,02,22.80
2013,04,24,17,03,22.70
2013,04,24,17,04,22.60
2013,04,24,17,05,22.50
2013,04,24,17,06,22.50
2013,04,24,17,07,22.40
2013,04,24,17,08,22.40
2013,04,24,17,09,22.40
2013,04,24,17,10,22.50
2013,04,24,17,11,22.50
2013,04,24,17,12,22.50
2013,04,24,17,13,22.50
2013,04,24,17,14,22.50
2013,04,24,17,15,22.50
2013,04,24,17,16,22.50
2013,04,24,17,17,22.50
2013,04,24,17,18,22.40
2013,04,24,17,19,22.30
2013,04,24,17,20,22.20
2013,04,24,17,21,22.10
2013,04,24,17,22,22.00
2013,04,24,17,23,22.00
2013,04,24,17,24,22.10
2013,04,24,17,25,22.10
2013,04,24,17,26,22.10
2013,04,24,17,27,22.10
2013,04,24,17,28,22.00
2013,04,24,17,29,21.90
2013,04,24,17,30,21.90
2013,04,24,17,31,22.00
2013,04,24,17,32,21.90
2013,04,24,17,33,21.90
2013,04,24,17,34,21.90
2013,04,24,17,35,21.90
2013,04,24,17,36,21.90
2013,04,24,17,37,21.90
2013,04,24,17,38,21.90
2013,04,24,17,39,21.90
2013,04,24,17,40,21.90
2013,04,24,17,41,21.80
2013,04,24,17,42,21.80
2013,04,24,17,43,21.80
2013,04,24,17,44,21.80
2013,04,24,17,45,21.80
2013,04,24,17,46,21.80